QPF
0.00 0.00 0.00 0.00 0.00 0.00 0.00 0.00 0.00 0.00 0.00 0.00 0.00 0.00 0.02 0.00 0.00 0.00 0.00 0.00 0.00 0.00 0.07 0.15 0.04 0.03 0.03 0.05 0.05 0.03 0.02 0.01 0.01 0.01 0.00 0.00 0.00 0.00 0.00 0.00 0.01 0.00 0.00 0.00 0.00 0.00 0.00 0.01 0.00
0.00 0.00 0.01 0.04 0.00 0.00 0.00 0.00 0.00 0.00 0.00 0.01 0.00 0.01 0.01 0.00 0.00 0.00 0.00 0.00 0.01 0.01 0.10 0.07 0.06 0.06 0.01 0.01 0.01 0.01 0.00 0.00 0.00 0.00 0.00 0.00 0.00 0.00 0.00 0.00 0.00 0.00 0.00 0.00 0.00 0.00 0.00 0.00 0.00
0.00 0.01 0.02 0.01 0.00 0.00 0.00 0.00 0.00 0.00 0.01 0.01 0.00 0.00 0.00 0.00 0.00 0.00 0.00 0.00 0.01 0.01 0.05 0.05 0.02 0.01 0.00 0.00 0.00 0.00 0.00 0.00 0.00 0.00 0.00 0.00 0.00 0.00 0.00 0.00 0.00 0.00 0.00 0.00 0.00 0.00 0.00 0.00 0.00
0.00 0.00 0.00 0.00 0.00 0.00 0.00 0.00 0.00 0.00 0.00 0.00 0.01 0.00 0.00 0.00 0.00 0.00 0.00 0.00 0.00 0.00 0.01 0.02 0.01 0.00 0.00 0.00 0.00 0.00 0.00 0.00 0.00 0.00 0.00 0.00 0.00 0.00 0.00 0.00 0.00 0.00 0.00 0.00 0.00 0.00 0.00 0.00 0.00
0.00 0.00 0.00 0.00 0.00 0.00 0.00 0.00 0.00 0.00 0.00 0.00 0.00 0.00 0.00 0.00 0.00 0.00 0.00 0.00 0.00 0.00 0.00 0.01 0.03 0.02 0.01 0.00 0.00 0.00 0.00 0.00 0.00 0.00 0.00 0.00 0.00 0.00 0.00 0.00 0.00 0.00 0.00 0.00 0.00 0.00 0.00 0.00 0.00
0.00 0.00 0.00 0.00 0.00 0.00 0.00 0.00 0.00 0.00 0.00 0.00 0.00 0.00 0.00 0.00 0.00 0.00 0.00 0.00 0.00 0.00 0.00 0.00 0.01 0.01 0.00 0.00 0.00 0.00 0.00 0.00 0.00 0.00 0.00 0.00 0.00 0.00 0.00 0.00 0.00 0.00 0.00 0.00 0.00 0.00 0.00 0.00 0.00
0.00 0.00 0.00 0.00 0.00 0.00 0.00 0.00 0.00 0.00 0.00 0.00 0.00 0.00 0.01 0.00 0.00 0.00 0.00 0.00 0.00 0.00 0.00 0.00 0.00 0.00 0.00 0.00 0.00 0.00 0.00 0.00 0.00 0.00 0.00 0.00 0.00 0.00 0.00 0.01 0.01 0.00 0.00 0.00 0.01 0.05 0.05 0.04 0.05
0.00 0.00 0.00 0.00 0.00 0.00 0.00 0.00 0.00 0.00 0.00 0.00 0.00 0.00 0.00 0.00 0.00 0.00 0.00 0.00 0.00 0.00 0.00 0.00 0.00 0.00 0.00 0.00 0.00 0.00 0.00 0.00 0.02 0.00 0.00 0.00 0.00 0.00 0.01 0.04 0.01 0.02 0.04 0.02 0.04 0.06 0.06 0.01 0.05
0.00 0.00 0.00 0.00 0.00 0.00 0.00 0.00 0.00 0.00 0.00 0.00 0.00 0.00 0.00 0.00 0.00 0.00 0.00 0.00 0.00 0.00 0.00 0.00 0.00 0.00 0.00 0.00 0.00 0.00 0.00 0.00 0.00 0.00 0.00 0.02 0.02 0.00 0.01 0.02 0.01 0.01 0.01 0.04 0.01 0.03 0.04 0.03 0.03
0.00 0.00 0.00 0.00 0.00 0.00 0.00 0.00 0.00 0.00 0.00 0.00 0.00 0.00 0.00 0.00 0.00 0.00 0.00 0.00 0.00 0.00 0.00 0.00 0.00 0.00 0.00 0.00 0.00 0.00 0.00 0.00 0.00 0.00 0.04 0.05 0.01 0.00 0.02 0.02 0.03 0.02 0.04 0.06 0.07 0.03 0.02 0.01 0.00
0.00 0.00 0.00 0.00 0.00 0.00 0.00 0.00 0.00 0.00 0.00 0.00 0.00 0.00 0.00 0.00 0.00 0.00 0.00 0.00 0.00 0.00 0.00 0.00 0.00 0.00 0.00 0.00 0.00 0.00 0.00 0.00 0.00 0.00 0.00 0.02 0.00 0.00 0.00 0.00 0.00 0.01 0.00 0.01 0.02 0.02 0.00 0.00 0.00
0.00 0.00 0.00 0.00 0.00 0.00 0.00 0.00 0.00 0.00 0.00 0.00 0.00 0.00 0.00 0.00 0.00 0.00 0.00 0.00 0.00 0.00 0.00 0.00 0.00 0.00 0.00 0.00 0.00 0.01 0.01 0.01 0.01 0.00 0.00 0.00 0.00 0.00 0.01 0.00 0.01 0.00 0.01 0.02 0.00 0.01 0.00 0.00 0.00
0.00 0.00 0.00 0.00 0.00 0.00 0.00 0.00 0.00 0.00 0.00 0.00 0.00 0.00 0.00 0.00 0.00 0.00 0.00 0.00 0.00 0.00 0.00 0.00 0.00 0.00 0.00 0.00 0.00 0.00 0.00 0.01 0.02 0.00 0.00 0.00 0.00 0.00 0.03 0.04 0.03 0.03 0.02 0.02 0.05 0.01 0.01 0.01 0.00
0.00 0.00 0.00 0.00 0.00 0.00 0.00 0.00 0.00 0.00 0.00 0.00 0.00 0.00 0.00 0.00 0.00 0.00 0.00 0.00 0.00 0.00 0.00 0.00 0.00 0.00 0.00 0.00 0.00 0.00 0.00 0.00 0.01 0.02 0.00 0.00 0.00 0.01 0.09 0.05 0.03 0.00 0.00 0.00 0.05 0.02 0.01 0.01 0.00
0.00 0.00 0.00 0.00 0.00 0.00 0.00 0.00 0.00 0.00 0.00 0.00 0.00 0.00 0.00 0.00 0.00 0.00 0.00 0.00 0.00 0.00 0.00 0.00 0.00 0.00 0.00 0.00 0.00 0.00 0.00 0.00 0.01 0.07 0.02 0.10 0.05 0.03 0.15 0.08 0.07 0.02 0.02 0.02 0.00 0.00 0.00 0.00 0.00
0.00 0.00 0.00 0.00 0.00 0.00 0.00 0.00 0.00 0.00 0.00 0.00 0.00 0.00 0.00 0.00 0.00 0.00 0.00 0.00 0.00 0.00 0.00 0.00 0.00 0.00 0.00 0.00 0.00 0.00 0.00 0.01 0.00 0.00 0.02 0.05 0.04 0.09 0.03 0.08 0.08 0.06 0.10 0.01 0.00 0.00 0.00 0.00 0.00
0.00 0.00 0.00 0.00 0.00 0.00 0.00 0.00 0.00 0.00 0.00 0.00 0.00 0.00 0.00 0.00 0.00 0.00 0.00 0.00 0.00 0.00 0.00 0.00 0.00 0.00 0.00 0.00 0.00 0.00 0.00 0.00 0.00 0.00 0.00 0.00 0.00 0.02 0.01 0.02 0.07 0.00 0.00 0.00 0.00 0.00 0.00 0.00 0.00
0.00 0.00 0.00 0.00 0.00 0.00 0.00 0.00 0.00 0.00 0.00 0.00 0.00 0.00 0.00 0.00 0.00 0.00 0.00 0.00 0.00 0.00 0.00 0.00 0.00 0.00 0.00 0.00 0.00 0.01 0.01 0.00 0.00 0.00 0.00 0.00 0.00 0.00 0.01 0.01 0.00 0.00 0.00 0.00 0.00 0.00 0.00 0.00 0.00
0.00 0.00 0.00 0.00 0.00 0.00 0.00 0.00 0.00 0.00 0.00 0.00 0.00 0.00 0.00 0.00 0.00 0.00 0.00 0.00 0.00 0.00 0.00 0.00 0.00 0.00 0.00 0.00 0.00 0.00 0.00 0.00 0.00 0.00 0.00 0.00 0.00 0.03 0.01 0.00 0.00 0.00 0.00 0.00 0.00 0.00 0.00 0.00 0.00
0.00 0.00 0.00 0.00 0.00 0.00 0.00 0.00 0.00 0.00 0.00 0.00 0.00 0.00 0.00 0.00 0.00 0.00 0.00 0.00 0.00 0.00 0.00 0.00 0.00 0.00 0.00 0.00 0.00 0.00 0.00 0.00 0.00 0.00 0.00 0.00 0.00 0.00 0.00 0.00 0.00 0.00 0.00 0.00 0.00 0.00 0.00 0.00 0.00
0.00 0.00 0.00 0.00 0.00 0.00 0.00 0.00 0.00 0.00 0.00 0.00 0.00 0.00 0.00 0.00 0.00 0.00 0.00 0.00 0.00 0.00 0.00 0.00 0.00 0.00 0.00 0.00 0.00 0.00 0.00 0.00 0.00 0.00 0.00 0.00 0.00 0.00 0.00 0.00 0.00 0.00 0.00 0.00 0.00 0.00 0.00 0.00 0.00
0.00 0.00 0.00 0.00 0.00 0.00 0.00 0.00 0.00 0.00 0.00 0.00 0.00 0.00 0.00 0.00 0.00 0.00 0.00 0.00 0.00 0.00 0.00 0.00 0.00 0.00 0.00 0.00 0.00 0.00 0.00 0.00 0.00 0.00 0.00 0.00 0.00 0.00 0.00 0.00 0.00 0.00 0.00 0.00 0.00 0.00 0.00 0.00 0.00
0.00 0.00 0.00 0.00 0.00 0.00 0.00 0.00 0.00 0.00 0.00 0.00 0.00 0.00 0.00 0.00 0.00 0.00 0.00 0.00 0.00 0.00 0.00 0.00 0.00 0.00 0.00 0.00 0.00 0.00 0.00 0.00 0.00 0.00 0.00 0.00 0.00 0.00 0.00 0.00 0.00 0.00 0.00 0.00 0.00 0.00 0.00 0.00 0.00
0.00 0.00 0.00 0.00 0.00 0.00 0.00 0.00 0.00 0.00 0.00 0.00 0.00 0.00 0.00 0.00 0.00 0.00 0.00 0.00 0.00 0.00 0.00 0.00 0.00 0.00 0.00 0.00 0.00 0.00 0.00 0.00 0.00 0.00 0.00 0.00 0.00 0.00 0.00 0.00 0.00 0.00 0.00 0.00 0.00 0.00 0.00 0.00 0.00
0.00 0.00 0.00 0.00 0.00 0.00 0.00 0.00 0.00 0.00 0.00 0.00 0.00 0.00 0.00 0.00 0.00 0.00 0.00 0.00 0.00 0.00 0.00 0.00 0.00 0.00 0.00 0.00 0.00 0.00 0.00 0.00 0.00 0.00 0.00 0.00 0.00 0.00 0.00 0.00 0.00 0.00 0.00 0.00 0.00 0.00 0.00 0.00 0.00
0.00 0.00 0.00 0.00 0.00 0.00 0.00 0.00 0.00 0.00 0.00 0.00 0.00 0.00 0.00 0.00 0.00 0.00 0.00 0.00 0.00 0.00 0.00 0.00 0.00 0.00 0.00 0.00 0.00 0.00 0.00 0.00 0.00 0.00 0.00 0.00 0.00 0.00 0.00 0.00 0.00 0.00 0.00 0.00 0.00 0.00 0.00 0.00 0.00
0.00 0.00 0.00 0.00 0.00 0.00 0.00 0.00 0.00 0.00 0.00 0.00 0.00 0.00 0.00 0.00 0.00 0.00 0.00 0.00 0.00 0.00 0.00 0.00 0.00 0.00 0.00 0.00 0.00 0.00 0.00 0.00 0.00 0.00 0.00 0.00 0.00 0.00 0.00 0.00 0.00 0.00 0.00 0.00 0.00 0.00 0.00 0.00 0.00
0.00 0.00 0.00 0.00 0.00 0.00 0.00 0.00 0.00 0.00 0.00 0.00 0.00 0.00 0.00 0.00 0.00 0.00 0.00 0.00 0.00 0.00 0.00 0.00 0.00 0.00 0.00 0.00 0.00 0.00 0.00 0.00 0.00 0.00 0.00 0.00 0.00 0.00 0.00 0.00 0.00 0.00 0.00 0.00 0.00 0.00 0.00 0.00 0.00
0.00 0.00 0.00 0.00 0.00 0.00 0.00 0.00 0.00 0.00 0.00 0.00 0.00 0.00 0.00 0.00 0.00 0.00 0.00 0.00 0.00 0.00 0.00 0.00 0.00 0.00 0.00 0.00 0.00 0.00 0.00 0.00 0.00 0.00 0.00 0.00 0.00 0.00 0.00 0.00 0.00 0.00 0.00 0.00 0.00 0.00 0.00 0.00 0.00
0.00 0.00 0.00 0.00 0.00 0.00 0.00 0.00 0.00 0.00 0.00 0.00 0.00 0.00 0.00 0.00 0.00 0.00 0.00 0.00 0.00 0.00 0.00 0.00 0.00 0.00 0.00 0.00 0.00 0.00 0.00 0.00 0.00 0.00 0.00 0.00 0.00 0.00 0.00 0.00 0.00 0.00 0.00 0.00 0.00 0.00 0.00 0.00 0.00
MSLP
1008.08 1008.03 1008.01 1008.36 1009.40 1009.23 1010.04 1010.34 1010.11 1010.29 1010.32 1010.32 1010.29 1010.52 1011.46 1012.24 1012.78 1014.13 1014.14 1014.18 1014.24 1014.64 1014.82 1014.99 1015.14 1015.42 1015.72 1015.90 1016.32 1016.50 1016.63 1016.75 1016.95 1017.45 1017.36 1017.63 1017.68 1017.73 1017.94 1018.05 1018.07 1018.21 1018.15 1018.33 1018.24 1018.23 1018.29 1018.35 1018.40
1008.42 1008.60 1008.80 1009.15 1009.32 1009.59 1009.97 1009.96 1010.13 1010.07 1010.16 1010.29 1010.48 1010.97 1011.53 1012.67 1013.15 1013.80 1014.14 1014.35 1014.27 1014.58 1014.92 1015.06 1015.36 1015.54 1015.76 1016.03 1016.22 1016.43 1016.68 1017.01 1017.17 1017.51 1017.70 1017.89 1017.88 1017.94 1018.16 1018.30 1018.37 1018.45 1018.52 1018.51 1018.45 1018.45 1018.51 1018.59 1018.61
1008.71 1008.66 1009.22 1009.16 1009.40 1009.80 1009.75 1009.78 1009.92 1010.10 1010.22 1010.24 1010.88 1011.19 1012.02 1013.18 1013.60 1013.84 1014.02 1014.41 1014.56 1014.91 1015.10 1015.29 1015.52 1015.66 1015.85 1016.17 1016.40 1016.62 1016.93 1017.29 1017.47 1017.69 1017.99 1018.02 1018.21 1018.25 1018.40 1018.49 1018.61 1018.62 1018.67 1018.63 1018.62 1018.65 1018.74 1018.77 1018.73
1008.66 1008.91 1009.15 1009.22 1009.70 1009.34 1009.34 1009.60 1009.72 1010.11 1010.32 1010.54 1011.03 1011.91 1012.49 1012.98 1013.43 1013.74 1014.32 1014.50 1014.94 1015.17 1015.30 1015.50 1015.69 1015.92 1016.09 1016.45 1016.73 1017.06 1017.30 1017.56 1017.69 1017.97 1018.23 1018.33 1018.39 1018.45 1018.58 1018.70 1018.76 1018.85 1018.76 1018.82 1018.85 1018.86 1018.86 1018.75 1018.75
1008.74 1009.10 1009.25 1009.54 1009.66 1009.32 1009.17 1009.49 1009.66 1010.12 1010.55 1011.02 1011.19 1012.61 1013.20 1013.69 1013.62 1014.14 1014.63 1014.96 1015.14 1015.44 1015.52 1015.80 1016.00 1016.23 1016.49 1016.89 1017.16 1017.31 1017.56 1017.71 1017.99 1018.24 1018.39 1018.49 1018.54 1018.61 1018.74 1018.77 1018.92 1018.87 1018.83 1018.96 1019.02 1018.90 1018.86 1018.77 1018.80
1008.91 1009.22 1009.64 1010.12 1009.90 1009.55 1009.37 1009.43 1009.89 1010.31 1010.86 1011.39 1011.87 1012.68 1013.87 1014.07 1014.06 1014.61 1014.99 1015.32 1015.36 1015.72 1015.77 1016.00 1016.25 1016.51 1016.78 1017.06 1017.27 1017.40 1017.61 1017.87 1018.14 1018.35 1018.44 1018.60 1018.67 1018.77 1018.82 1018.95 1019.01 1018.95 1018.95 1018.98 1019.02 1018.89 1018.78 1018.79 1018.73
1008.25 1008.96 1009.71 1010.01 1010.01 1009.65 1009.47 1009.48 1010.01 1010.53 1010.89 1011.38 1011.71 1012.90 1014.05 1014.32 1014.38 1014.83 1015.27 1015.55 1015.64 1015.91 1016.09 1016.25 1016.42 1016.69 1016.92 1017.19 1017.36 1017.57 1017.77 1018.06 1018.34 1018.49 1018.64 1018.73 1018.82 1018.94 1018.95 1019.01 1019.03 1018.99 1018.98 1018.92 1018.87 1018.77 1018.64 1018.71 1018.61
1007.45 1008.39 1009.32 1009.67 1009.83 1009.63 1009.32 1009.57 1009.89 1010.33 1010.78 1011.15 1011.67 1012.79 1013.64 1014.02 1014.45 1015.07 1015.57 1015.90 1016.11 1016.19 1016.26 1016.50 1016.70 1016.89 1017.13 1017.38 1017.54 1017.74 1018.03 1018.30 1018.52 1018.64 1018.74 1018.86 1018.93 1019.03 1019.13 1019.11 1019.10 1019.14 1018.92 1018.83 1018.70 1018.60 1018.63 1018.51 1018.52
1006.65 1008.04 1008.94 1009.07 1009.33 1009.13 1009.21 1009.74 1010.06 1010.20 1010.90 1011.09 1011.50 1011.98 1012.65 1013.73 1014.44 1015.23 1015.87 1016.26 1016.40 1016.56 1016.71 1016.75 1016.94 1017.15 1017.38 1017.62 1017.76 1017.87 1018.13 1018.42 1018.64 1018.71 1018.81 1018.87 1018.99 1019.07 1019.10 1019.10 1019.06 1018.95 1018.95 1018.87 1018.63 1018.56 1018.50 1018.43 1018.40
1006.45 1007.20 1007.56 1007.53 1007.95 1008.43 1008.97 1009.54 1010.04 1010.50 1010.87 1011.33 1011.81 1012.28 1013.16 1013.96 1014.64 1015.27 1015.85 1016.13 1016.42 1016.62 1016.82 1016.91 1017.02 1017.30 1017.48 1017.60 1017.84 1018.02 1018.28 1018.48 1018.66 1018.81 1018.98 1019.00 1019.12 1019.19 1019.26 1019.33 1019.05 1018.92 1018.80 1018.77 1018.59 1018.47 1018.39 1018.44 1018.55
1005.43 1006.01 1006.51 1006.91 1007.17 1007.68 1008.95 1009.56 1009.87 1010.45 1010.88 1010.90 1011.38 1012.23 1013.26 1014.12 1014.81 1015.30 1015.73 1015.78 1015.92 1016.32 1016.72 1016.89 1016.97 1017.19 1017.41 1017.58 1017.85 1018.15 1018.34 1018.54 1018.75 1018.94 1019.04 1019.13 1019.21 1019.30 1019.27 1019.19 1019.16 1019.10 1018.95 1018.89 1018.75 1018.64 1018.57 1018.54 1018.52
1005.20 1005.58 1005.86 1006.33 1006.74 1007.55 1008.58 1009.25 1009.82 1010.34 1010.27 1010.39 1011.25 1012.15 1013.12 1014.02 1014.63 1015.07 1015.48 1015.78 1016.04 1016.33 1016.53 1016.71 1016.81 1017.12 1017.40 1017.63 1017.85 1018.13 1018.31 1018.53 1018.75 1018.83 1018.99 1019.16 1019.17 1019.20 1019.14 1019.27 1019.28 1019.19 1019.11 1019.06 1018.92 1018.82 1018.74 1018.64 1018.59
1005.01 1005.62 1005.77 1006.02 1006.73 1007.49 1008.43 1009.03 1009.61 1010.12 1010.03 1010.87 1011.71 1012.55 1013.17 1013.76 1014.22 1014.68 1015.03 1015.66 1015.95 1016.24 1016.45 1016.65 1016.80 1017.15 1017.43 1017.75 1017.91 1018.10 1018.21 1018.37 1018.54 1018.66 1018.79 1018.89 1019.00 1018.93 1019.00 1019.13 1019.25 1019.24 1019.10 1019.18 1019.06 1018.95 1018.89 1018.77 1018.58
1004.92 1005.56 1006.03 1006.76 1007.38 1007.91 1008.49 1009.19 1009.46 1010.27 1010.46 1011.34 1011.93 1012.50 1012.95 1013.47 1013.87 1014.48 1014.96 1015.42 1015.68 1015.92 1016.09 1016.35 1016.61 1016.77 1017.10 1017.38 1017.63 1017.76 1017.92 1018.06 1018.21 1018.30 1018.26 1018.44 1018.64 1018.69 1018.97 1019.04 1019.02 1019.09 1019.01 1019.01 1018.99 1018.98 1018.91 1018.79 1018.66
1005.17 1006.52 1006.68 1007.37 1007.57 1008.19 1008.56 1009.64 1009.52 1009.82 1010.40 1011.29 1011.92 1012.43 1012.85 1013.19 1013.84 1013.84 1014.00 1014.55 1014.92 1015.18 1015.61 1015.97 1016.29 1016.46 1016.89 1016.98 1017.20 1017.39 1017.47 1017.68 1017.78 1017.83 1017.91 1018.07 1018.20 1018.27 1018.48 1018.70 1018.92 1018.92 1019.06 1019.00 1018.99 1018.84 1018.79 1018.72 1018.55
1005.71 1006.53 1007.53 1007.92 1007.82 1008.14 1008.44 1009.14 1009.47 1009.94 1010.46 1011.29 1011.87 1012.24 1012.55 1012.82 1013.18 1013.52 1013.87 1014.21 1014.54 1014.96 1015.24 1015.41 1015.91 1016.28 1016.62 1016.81 1016.77 1016.92 1017.17 1017.40 1017.44 1017.48 1017.62 1017.68 1017.73 1017.94 1018.17 1018.36 1018.60 1018.71 1018.92 1018.90 1018.84 1018.90 1018.85 1018.76 1018.70
1006.33 1006.94 1007.53 1008.01 1007.84 1008.02 1008.82 1009.18 1009.30 1009.88 1010.31 1010.94 1011.44 1011.87 1012.12 1012.65 1012.88 1012.99 1013.19 1013.61 1014.14 1014.38 1014.83 1015.16 1015.40 1015.68 1016.01 1016.25 1016.53 1016.74 1016.95 1017.14 1017.20 1017.27 1017.20 1017.23 1017.33 1017.45 1017.66 1018.02 1018.45 1018.49 1018.70 1018.73 1018.78 1018.87 1018.94 1018.93 1018.78
1006.41 1006.96 1007.33 1007.38 1007.66 1008.01 1008.73 1009.01 1009.30 1009.67 1010.10 1010.37 1010.83 1011.25 1011.62 1011.90 1011.98 1012.28 1012.66 1013.05 1013.58 1014.09 1014.44 1014.85 1015.15 1015.41 1015.70 1016.11 1016.52 1016.75 1017.04 1017.02 1017.03 1017.11 1017.15 1017.12 1017.13 1017.23 1017.49 1017.82 1017.97 1018.30 1018.60 1018.89 1018.86 1018.99 1019.10 1019.11 1019.06
1005.54 1006.21 1006.59 1007.09 1007.49 1008.33 1008.42 1008.80 1009.11 1009.43 1009.95 1010.11 1010.36 1010.62 1010.87 1011.12 1011.00 1011.69 1012.19 1012.56 1013.13 1013.71 1014.23 1014.57 1015.01 1015.26 1015.65 1016.07 1016.43 1016.82 1016.98 1017.03 1017.07 1016.83 1016.82 1016.86 1016.94 1017.13 1017.34 1017.73 1017.96 1018.30 1018.70 1018.93 1019.00 1019.09 1019.14 1019.11 1019.00
1005.39 1006.08 1006.61 1007.18 1007.52 1008.53 1008.92 1009.08 1009.17 1009.38 1009.00 1009.30 1009.68 1009.99 1010.14 1010.37 1010.85 1011.24 1011.76 1012.33 1012.68 1013.03 1013.48 1014.11 1014.48 1014.93 1015.16 1015.53 1015.93 1016.26 1016.50 1016.56 1016.49 1016.47 1016.44 1016.47 1016.71 1016.99 1017.23 1017.46 1017.88 1018.18 1018.57 1018.89 1018.99 1019.11 1019.28 1019.27 1019.28
1005.23 1005.31 1006.24 1006.64 1007.55 1008.24 1009.13 1009.41 1009.20 1009.12 1009.28 1009.35 1009.27 1009.15 1009.59 1009.93 1010.37 1010.72 1011.36 1011.72 1012.11 1012.70 1013.02 1013.42 1013.81 1014.13 1014.50 1015.03 1015.64 1016.19 1016.36 1016.38 1016.41 1016.41 1016.33 1016.28 1016.42 1016.78 1017.00 1017.35 1017.70 1018.12 1018.48 1018.76 1018.97 1019.15 1019.37 1019.46 1019.37
1004.81 1004.65 1005.46 1006.74 1007.78 1008.35 1008.62 1009.38 1008.88 1008.49 1008.60 1008.51 1008.29 1008.33 1008.64 1008.96 1009.47 1009.99 1010.44 1011.05 1011.45 1011.78 1012.33 1012.74 1013.11 1013.49 1013.91 1014.48 1015.08 1015.46 1015.71 1016.10 1016.18 1016.21 1016.21 1016.25 1016.27 1016.55 1016.97 1017.30 1017.63 1018.06 1018.37 1018.68 1018.96 1019.16 1019.36 1019.49 1019.60
1003.83 1004.10 1005.30 1006.54 1007.72 1008.51 1009.12 1009.45 1007.80 1007.96 1008.18 1007.19 1006.75 1007.03 1007.38 1007.69 1008.25 1008.90 1009.44 1009.86 1010.32 1011.05 1011.78 1012.19 1012.59 1013.02 1013.41 1013.94 1014.43 1014.87 1015.35 1015.79 1016.06 1016.29 1016.41 1016.47 1016.53 1016.61 1016.88 1017.22 1017.46 1017.88 1018.18 1018.58 1018.82 1019.05 1019.22 1019.51 1019.60
1003.35 1004.78 1006.47 1007.80 1008.68 1009.30 1008.49 1008.69 1007.57 1007.50 1005.53 1004.72 1005.18 1005.65 1005.85 1006.45 1007.21 1007.77 1008.28 1009.26 1009.91 1010.60 1011.14 1011.49 1012.00 1012.37 1012.84 1013.42 1013.81 1014.26 1014.87 1015.50 1016.01 1016.39 1016.57 1016.67 1016.75 1016.93 1016.93 1017.17 1017.46 1017.70 1018.06 1018.31 1018.56 1018.91 1019.16 1019.31 1019.45
1003.25 1004.99 1007.17 1009.01 1009.68 1009.40 1008.00 1008.55 1005.96 1004.42 1003.68 1003.07 1003.27 1003.77 1004.47 1005.23 1006.15 1006.87 1007.84 1008.47 1009.03 1009.62 1010.17 1010.81 1011.30 1011.62 1012.07 1012.66 1013.06 1013.59 1014.25 1015.05 1015.47 1015.91 1016.32 1016.67 1016.91 1017.05 1017.12 1017.26 1017.59 1017.84 1017.98 1018.15 1018.28 1018.59 1018.84 1019.08 1019.23
1003.57 1004.51 1006.41 1007.96 1009.18 1008.88 1008.27 1007.04 1003.78 1002.71 1002.08 1002.47 1002.68 1002.88 1003.64 1004.30 1004.89 1005.67 1006.47 1007.11 1007.95 1008.61 1009.37 1010.09 1010.55 1010.97 1011.43 1012.11 1012.62 1013.22 1013.92 1014.72 1015.25 1015.49 1016.02 1016.30 1016.46 1016.51 1016.76 1017.11 1017.36 1017.61 1017.82 1017.96 1018.12 1018.39 1018.65 1018.84 1019.02
1003.24 1004.30 1004.90 1006.89 1008.49 1008.54 1007.61 1005.58 1003.45 1002.30 1002.03 1001.91 1001.77 1002.45 1002.64 1002.96 1003.53 1004.31 1005.14 1005.93 1006.63 1007.54 1008.12 1008.68 1009.45 1010.17 1010.77 1011.37 1011.95 1012.76 1013.36 1014.03 1014.75 1015.14 1015.58 1015.77 1016.02 1016.30 1016.45 1016.75 1017.19 1017.40 1017.57 1017.80 1017.93 1018.20 1018.42 1018.57 1018.64
1001.49 1003.06 1005.03 1006.67 1007.93 1008.32 1007.17 1005.54 1003.57 1002.56 1001.83 1001.33 1001.54 1001.40 1001.21 1001.85 1002.84 1003.55 1004.16 1004.77 1005.47 1005.88 1006.67 1007.94 1008.67 1009.23 1009.90 1010.60 1011.32 1011.97 1012.66 1013.40 1013.81 1014.61 1015.19 1015.50 1015.84 1016.29 1016.58 1016.75 1016.98 1017.35 1017.53 1017.55 1017.83 1017.98 1018.02 1018.23 1018.28
1001.93 1002.90 1004.51 1005.52 1006.63 1007.14 1006.73 1004.95 1002.38 1001.73 1001.09 1000.94 1000.66 1000.22 1000.52 1001.17 1001.62 1002.28 1003.07 1003.73 1004.20 1004.91 1006.03 1006.84 1007.75 1008.35 1009.18 1009.82 1010.70 1011.46 1012.18 1012.84 1013.22 1013.99 1014.48 1014.91 1015.56 1016.12 1016.66 1016.97 1017.24 1017.15 1017.30 1017.45 1017.63 1017.79 1017.91 1017.94 1018.02
1000.51 1001.67 1003.03 1004.78 1006.26 1006.39 1005.41 1003.37 1000.94 1000.40 1000.46 1000.60 1000.28 999.82 1000.31 1000.72 1001.10 1001.71 1002.38 1003.11 1003.94 1004.43 1005.20 1005.76 1006.59 1007.38 1008.03 1008.99 1009.99 1010.83 1011.69 1012.25 1013.02 1013.24 1013.97 1014.54 1015.01 1015.51 1016.13 1016.60 1016.93 1017.11 1017.19 1017.24 1017.27 1017.33 1017.45 1017.50 1017.55
Thickness
5812 5810 5811 5796 5765 5763 5743 5747 5766 5755 5758 5772 5778 5772 5758 5759 5755 5736 5765 5768 5768 5765 5763 5761 5761 5760 5760 5760 5757 5757 5757 5755 5754 5748 5751 5748 5749 5748 5746 5745 5746 5746 5745 5744 5746 5747 5746 5746 5746
5809 5806 5798 5779 5759 5738 5742 5764 5754 5765 5772 5778 5779 5773 5764 5752 5763 5759 5762 5769 5769 5767 5765 5763 5762 5761 5761 5760 5759 5758 5755 5753 5753 5750 5748 5746 5746 5747 5745 5745 5745 5744 5744 5744 5745 5746 5746 5745 5745
5810 5808 5781 5771 5756 5741 5745 5766 5766 5773 5779 5779 5771 5778 5767 5754 5764 5764 5771 5771 5768 5766 5765 5763 5762 5762 5762 5760 5759 5757 5755 5752 5751 5748 5745 5746 5744 5746 5745 5744 5743 5743 5743 5744 5744 5744 5744 5744 5745
5806 5798 5789 5761 5755 5769 5769 5770 5777 5774 5781 5782 5777 5762 5773 5775 5769 5772 5771 5769 5767 5765 5765 5763 5763 5762 5760 5757 5756 5754 5752 5749 5749 5748 5744 5743 5744 5745 5744 5743 5743 5742 5743 5744 5743 5743 5743 5745 5745
5808 5791 5768 5762 5764 5775 5780 5780 5782 5774 5777 5777 5779 5758 5760 5770 5775 5773 5771 5769 5766 5765 5765 5762 5761 5759 5757 5754 5752 5751 5750 5750 5749 5745 5744 5743 5744 5744 5743 5743 5742 5743 5744 5742 5742 5743 5743 5745 5745
5792 5790 5761 5749 5763 5775 5782 5787 5781 5776 5775 5773 5769 5762 5757 5771 5771 5770 5770 5767 5766 5764 5764 5762 5760 5758 5756 5754 5752 5752 5752 5750 5746 5744 5744 5743 5743 5743 5743 5742 5742 5743 5743 5742 5742 5744 5745 5744 5745
5799 5782 5766 5763 5762 5771 5779 5791 5778 5774 5773 5772 5779 5756 5760 5766 5772 5771 5768 5767 5765 5763 5762 5761 5760 5758 5756 5754 5754 5752 5750 5747 5745 5744 5744 5744 5743 5742 5743 5743 5743 5744 5744 5743 5744 5745 5747 5746 5746
5811 5793 5777 5773 5762 5767 5790 5789 5789 5781 5776 5790 5785 5756 5756 5769 5774 5770 5767 5765 5763 5762 5762 5761 5760 5758 5757 5755 5753 5752 5750 5747 5746 5744 5744 5744 5743 5742 5741 5742 5742 5742 5743 5743 5745 5746 5746 5747 5748
5826 5781 5767 5774 5771 5780 5794 5783 5792 5795 5781 5788 5787 5780 5780 5778 5775 5767 5762 5761 5761 5761 5761 5761 5760 5759 5757 5755 5753 5752 5751 5748 5746 5746 5745 5746 5745 5744 5743 5743 5743 5743 5743 5743 5744 5745 5746 5746 5747
5811 5787 5788 5803 5800 5789 5793 5790 5787 5782 5780 5779 5780 5785 5781 5777 5771 5765 5760 5759 5760 5761 5762 5763 5761 5759 5758 5756 5755 5754 5752 5751 5748 5747 5747 5747 5745 5744 5743 5742 5743 5743 5744 5745 5745 5745 5745 5746 5745
5822 5801 5813 5812 5811 5810 5792 5789 5796 5781 5774 5785 5780 5781 5779 5774 5770 5766 5763 5765 5766 5766 5766 5765 5764 5762 5761 5760 5758 5756 5754 5752 5750 5748 5747 5747 5745 5745 5744 5744 5744 5743 5744 5745 5744 5745 5744 5744 5745
5815 5824 5822 5819 5818 5809 5795 5798 5789 5787 5790 5801 5796 5789 5782 5775 5771 5769 5767 5767 5767 5768 5769 5769 5767 5766 5764 5762 5761 5758 5756 5754 5752 5751 5749 5748 5748 5747 5747 5745 5744 5744 5744 5743 5744 5744 5743 5743 5743
5818 5820 5825 5824 5816 5811 5807 5795 5792 5790 5803 5801 5795 5788 5782 5779 5778 5777 5776 5773 5771 5769 5770 5770 5769 5767 5765 5762 5761 5759 5758 5756 5755 5753 5751 5750 5749 5749 5748 5747 5745 5744 5745 5744 5743 5743 5743 5742 5742
5826 5821 5818 5815 5809 5808 5798 5795 5797 5794 5802 5793 5791 5787 5786 5783 5782 5780 5777 5774 5774 5774 5774 5775 5773 5772 5769 5767 5764 5763 5761 5759 5757 5756 5755 5754 5752 5751 5749 5747 5747 5746 5746 5745 5745 5744 5744 5743 5743
5824 5800 5810 5805 5807 5799 5806 5785 5788 5802 5802 5791 5789 5788 5787 5785 5783 5784 5787 5782 5782 5782 5780 5778 5776 5774 5772 5770 5768 5767 5766 5763 5762 5761 5759 5757 5756 5755 5752 5751 5748 5748 5746 5745 5744 5745 5745 5744 5744
5807 5800 5779 5796 5803 5804 5802 5769 5795 5804 5800 5790 5789 5788 5789 5789 5788 5789 5788 5787 5786 5784 5783 5784 5781 5778 5775 5773 5773 5771 5769 5766 5764 5763 5762 5761 5760 5758 5756 5754 5752 5750 5747 5745 5745 5744 5744 5744 5742
5793 5771 5778 5783 5803 5802 5793 5780 5800 5806 5801 5794 5793 5792 5792 5789 5791 5794 5795 5793 5789 5788 5786 5785 5785 5783 5781 5778 5775 5773 5771 5769 5768 5766 5766 5765 5764 5761 5760 5756 5752 5751 5748 5746 5745 5744 5742 5740 5740
5778 5776 5783 5780 5798 5801 5788 5788 5799 5805 5802 5799 5799 5798 5797 5795 5797 5801 5800 5799 5795 5791 5790 5787 5786 5785 5783 5780 5776 5773 5771 5771 5771 5769 5767 5766 5765 5762 5760 5757 5755 5751 5748 5744 5744 5741 5739 5737 5735
5804 5796 5792 5794 5803 5792 5789 5793 5796 5804 5802 5799 5801 5801 5802 5802 5809 5807 5804 5803 5798 5795 5791 5789 5786 5785 5782 5779 5776 5773 5771 5772 5771 5772 5771 5769 5766 5764 5762 5757 5755 5751 5746 5742 5741 5739 5738 5736 5736
5801 5788 5786 5793 5799 5790 5785 5786 5796 5800 5805 5806 5805 5804 5806 5807 5804 5805 5804 5802 5800 5799 5798 5793 5791 5787 5787 5784 5781 5778 5775 5773 5774 5773 5773 5771 5767 5764 5761 5758 5754 5749 5745 5741 5738 5735 5731 5731 5729
5792 5796 5786 5792 5788 5791 5781 5776 5784 5798 5804 5806 5810 5814 5811 5809 5803 5804 5803 5803 5804 5800 5799 5798 5795 5793 5791 5787 5782 5776 5774 5773 5772 5772 5772 5771 5768 5763 5759 5755 5751 5746 5743 5738 5733 5730 5726 5723 5725
5775 5808 5806 5788 5779 5758 5786 5745 5774 5795 5797 5805 5811 5814 5813 5814 5814 5811 5809 5805 5806 5806 5805 5802 5799 5797 5795 5789 5783 5779 5774 5770 5771 5769 5769 5768 5765 5762 5756 5752 5748 5743 5739 5735 5730 5727 5723 5720 5716
5795 5813 5801 5793 5777 5768 5767 5752 5781 5792 5786 5806 5820 5822 5823 5824 5822 5816 5814 5814 5814 5811 5805 5803 5800 5797 5795 5791 5786 5780 5774 5772 5769 5765 5763 5762 5760 5757 5754 5748 5745 5740 5735 5732 5728 5723 5720 5715 5711
5816 5796 5774 5762 5755 5730 5765 5767 5769 5771 5810 5827 5832 5833 5834 5832 5827 5824 5822 5817 5814 5811 5806 5804 5800 5798 5794 5790 5787 5781 5775 5768 5764 5760 5758 5756 5755 5752 5750 5745 5740 5736 5732 5728 5724 5719 5715 5711 5708
5796 5774 5733 5725 5716 5717 5770 5752 5794 5814 5829 5842 5842 5843 5843 5841 5834 5828 5820 5816 5814 5810 5807 5805 5802 5799 5797 5792 5789 5784 5778 5770 5765 5760 5755 5751 5748 5746 5744 5739 5734 5731 5726 5722 5720 5717 5713 5708 5705
5778 5775 5732 5721 5708 5738 5754 5746 5803 5840 5849 5848 5851 5851 5848 5844 5843 5836 5829 5824 5817 5813 5809 5805 5802 5801 5798 5793 5789 5784 5778 5770 5763 5760 5754 5749 5746 5745 5742 5735 5730 5726 5722 5719 5716 5714 5710 5706 5701
5776 5759 5783 5740 5738 5732 5738 5773 5816 5832 5836 5842 5849 5847 5848 5851 5850 5844 5839 5832 5824 5818 5815 5812 5807 5804 5799 5794 5790 5782 5776 5769 5762 5758 5753 5751 5747 5741 5737 5732 5727 5722 5719 5715 5712 5709 5705 5701 5698
5790 5789 5758 5732 5720 5717 5734 5756 5771 5811 5825 5841 5839 5850 5859 5857 5851 5848 5844 5839 5832 5829 5824 5818 5814 5809 5803 5796 5790 5784 5776 5769 5764 5755 5749 5746 5742 5737 5731 5726 5722 5717 5713 5711 5707 5705 5703 5698 5694
5769 5760 5752 5749 5734 5720 5718 5737 5801 5817 5831 5839 5850 5861 5863 5859 5858 5856 5851 5846 5841 5835 5827 5822 5817 5813 5805 5799 5790 5782 5774 5767 5762 5754 5749 5744 5738 5731 5724 5718 5713 5713 5710 5707 5703 5700 5696 5693 5689
5787 5771 5771 5750 5731 5727 5735 5752 5828 5836 5839 5841 5846 5862 5862 5862 5861 5859 5855 5847 5840 5836 5832 5829 5823 5817 5811 5800 5789 5781 5772 5766 5758 5753 5745 5739 5734 5729 5723 5717 5712 5708 5706 5703 5699 5696 5692 5689 5685